DW4238 Weather Reports


time (UTC)temp
F
wind
direction
speed
knots
gust
knots
rain 1hr
in
rain 24hr
in
rain mn
in
humidity
%
barometer
mb
20260904005154 82 140 7.0 10.4 0.00 1.20 0.00 82 1010.9
20260904004605 82 101 6.1 12.2 0.00 1.20 0.00 82 1010.9
20260904004115 82 142 6.1 12.2 0.00 1.20 0.00 82 1010.9
20260904003620 82 150 7.0 11.3 0.00 1.20 0.00 82 1010.9
20260904003048 82 105 5.2 11.3 0.00 1.20 0.00 83 1010.9
20260904002552 82 134 7.0 11.3 0.00 1.20 0.00 82 1011.0
20260904001620 83 146 5.2 10.4 0.00 1.20 0.00 82 1010.9
20260904001123 83 146 6.1 11.3 0.00 1.20 0.00 82 1010.9
20260904000625 83 150 5.2 11.3 0.00 1.20 0.00 82 1010.9
20260904000056 83 148 7.0 11.3 0.00 1.20 0.00 81 1010.9
20260903235608 83 140 7.0 10.4 0.00 1.20 0.00 81 1011.0
20260903234630 83 132 6.1 11.3 0.00 1.20 0.00 81 1010.9
20260903234121 83 127 6.1 10.4 0.00 1.20 0.00 81 1011.0
20260903233103 83 148 6.1 9.6 0.00 1.20 0.00 81 1011.1
20260903232607 83 117 5.2 10.4 0.00 1.20 0.00 81 1011.1
20260903231630 83 143 6.1 13.0 0.00 1.20 0.00 82 1011.1
20260903231045 83 126 7.8 13.0 0.00 1.20 0.00 82 1011.2
20260903230107 83 142 5.2 10.4 0.00 1.20 0.00 83 1011.1
20260903225618 83 137 5.2 10.4 0.00 1.20 0.00 82 1011.1
20260903225122 83 116 5.2 10.4 0.00 1.20 0.00 83 1011.2
20260903224549 83 117 6.1 10.4 0.00 1.20 0.00 83 1011.2
20260903224100 83 111 6.1 10.4 0.00 1.20 0.00 82 1011.2
20260903223123 83 136 6.1 10.4 0.00 1.20 0.00 82 1011.1
20260903222611 83 131 4.3 10.4 0.00 1.20 0.00 82 1011.1
20260903222122 82 160 4.3 9.6 0.00 1.20 0.00 83 1011.2
20260903221542 82 125 7.0 9.6 0.00 1.20 0.00 83 1011.3
20260903221053 83 104 5.2 9.6 0.00 1.20 0.00 83 1011.3
20260903220116 83 136 4.3 12.2 0.00 1.20 0.00 83 1011.4
20260903215627 83 135 7.0 12.2 0.00 1.20 0.00 82 1011.5
20260903215130 83 170 6.1 10.4 0.00 1.20 0.00 82 1011.5
20260903214556 83 142 6.1 10.4 0.00 1.20 0.00 82 1011.6
20260903214046 83 186 7.0 9.6 0.00 1.20 0.00 82 1011.8
20260903213105 83 137 6.1 13.0 0.00 1.20 0.00 82 1011.9
20260903212608 83 139 7.0 13.0 0.00 1.20 0.00 82 1012.0
20260903212114 83 155 8.7 12.2 0.00 1.20 0.00 82 1012.0
20260903211545 83 144 7.0 13.9 0.00 1.20 0.00 82 1012.1
20260903211050 83 140 7.8 13.9 0.00 1.20 0.00 82 1012.1
20260903210122 83 115 9.6 13.9 0.00 1.20 0.00 82 1012.2
20260903205601 83 155 10.4 14.8 0.00 1.20 0.00 83 1012.3
20260903204628 83 141 6.1 13.9 0.00 1.20 0.00 82 1012.2
20260903204119 84 160 7.8 13.0 0.00 1.20 0.00 81 1012.0
20260903203630 83 156 7.8 12.2 0.00 1.20 0.00 81 1012.1
20260903203051 83 150 6.1 11.3 0.00 1.20 0.00 80 1012.0
20260903202603 82 150 7.0 9.6 0.00 1.20 0.00 79 1012.0
20260903201603 82 111 6.1 11.3 0.00 1.20 0.00 80 1012.1
20260903201108 81 146 7.8 12.2 0.00 1.20 0.00 80 1012.2
20260903200126 82 150 7.0 16.5 0.00 1.20 0.00 78 1012.4
20260903195642 82 130 10.4 16.5 0.00 1.20 0.00 77 1012.6
20260903195132 82 135 7.0 13.0 0.00 1.20 0.00 79 1012.7
20260903194552 83 136 6.1 13.0 0.00 1.20 0.00 80 1012.7
20260903194104 84 135 4.3 16.5 0.00 1.20 0.00 82 1012.6
20260903193105 85 73 10.4 18.2 0.00 1.20 0.00 82 1012.5
20260903192617 87 76 9.6 17.4 0.00 1.20 0.00 79 1012.5
20260903192122 87 75 11.3 15.6 0.00 1.20 0.00 79 1012.4
20260903191547 87 76 9.6 15.6 0.00 1.20 0.00 79 1012.4
20260903191103 88 71 11.3 15.6 0.00 1.20 0.00 79 1012.4
20260903190124 89 74 8.7 12.2 0.00 1.20 0.00 78 1012.4
20260903185629 89 51 3.5 10.4 0.00 1.20 0.00 78 1012.4
20260903185115 89 24 6.1 10.4 0.00 1.20 0.00 78 1012.3
20260903184546 89 44 5.2 10.4 0.00 1.20 0.00 78 1012.5
20260903184051 89 28 3.5 9.6 0.00 1.20 0.00 78 1012.6
20260903183120 90 59 7.8 10.4 0.00 1.20 0.00 76 1012.5
20260903182604 91 69 4.3 7.8 0.00 1.20 0.00 75 1012.4
20260903182115 90 340 2.6 7.0 0.00 1.20 0.00 72 1012.5
20260903181540 90 355 2.6 5.2 0.00 1.20 0.00 73 1012.6
20260903181154 90 287 2.6 7.0 0.00 1.20 0.00 72 1012.6
20260903180545 90 239 2.6 7.0 0.00 1.20 0.00 73 1012.9
20260903180151 90 258 2.6 5.2 0.00 1.20 0.00 76 1013.0
20260903175620 89 26 0.0 4.3 0.00 1.20 0.00 78 1013.1
20260903175133 89 26 1.7 7.0 0.00 1.20 0.00 78 1013.1
20260903174552 89 35 2.6 9.6 0.00 1.20 0.00 79 1013.2
20260903174037 89 34 3.5 7.8 0.00 1.20 0.00 79 1013.2
20260903173629 88 51 4.3 7.8 0.00 1.20 0.00 80 1013.3
20260903173055 88 59 2.6 7.0 0.00 1.20 0.00 81 1013.4
20260903172539 88 54 3.5 7.0 0.00 1.20 0.00 81 1013.6
20260903171613 88 51 0.9 7.8 0.00 1.20 0.00 81 1013.8
20260903171056 87 78 1.7 7.8 0.00 1.20 0.00 82 1013.9
20260903170054 87 71 1.7 9.6 0.00 1.20 0.00 82 1013.8
20260903165605 87 84 4.3 8.7 0.00 1.20 0.00 83 1013.7
20260903164622 87 66 6.1 8.7 0.00 1.20 0.00 82 1013.7
20260903164122 87 69 4.3 7.8 0.00 1.20 0.00 82 1013.8
20260903163632 88 76 2.6 7.0 0.00 1.20 0.00 81 1013.8
20260903163037 88 221 3.5 8.7 0.00 1.20 0.00 76 1013.7
20260903162545 88 184 6.1 12.2 0.00 1.20 0.00 76 1013.8
20260903161614 87 161 5.2 11.3 0.00 1.20 0.00 78 1013.8
20260903161119 87 215 7.0 15.6 0.00 1.20 0.00 77 1013.8
20260903160630 87 192 11.3 15.6 0.00 1.20 0.00 77 1013.6
20260903160050 87 184 7.8 11.3 0.00 1.20 0.00 78 1013.7
20260903155601 87 224 7.0 10.4 0.00 1.20 0.00 81 1013.7
20260903154624 86 209 8.7 13.0 0.00 1.20 0.00 81 1013.8
20260903154039 86 200 7.0 12.2 0.00 1.20 0.00 82 1013.7
20260903153544 85 189 9.6 11.3 0.00 1.20 0.00 83 1013.7
20260903153155 85 173 7.0 10.4 0.00 1.20 0.00 85 1013.8
20260903152544 85 184 7.0 11.3 0.00 1.20 0.00 86 1013.8
20260903151606 84 178 8.7 12.2 0.00 1.20 0.00 86 1013.8
20260903151112 84 161 4.3 12.2 0.00 1.20 0.00 87 1013.7
20260903150141 84 176 7.8 11.3 0.00 1.20 0.00 88 1013.6
20260903145625 84 193 6.1 12.2 0.00 1.20 0.00 88 1013.7
20260903145134 83 205 8.7 11.3 0.00 1.20 0.00 89 1013.5
20260903144545 83 196 5.2 9.6 0.00 1.20 0.00 90 1013.4
20260903144048 83 197 7.0 9.6 0.00 1.20 0.00 90 1013.4
20260903143111 83 198 5.2 12.2 0.00 1.20 0.00 91 1013.5
20260903142602 82 219 7.0 8.7 0.00 1.20 0.00 91 1013.5
20260903141604 82 186 4.3 8.7 0.00 1.20 0.00 92 1013.5
20260903141108 82 180 3.5 7.0 0.00 1.20 0.00 93 1013.4
20260903140619 82 160 3.5 7.0 0.00 1.20 0.00 93 1013.5
20260903140050 82 188 4.3 7.8 0.00 1.20 0.00 93 1013.4
20260903135554 82 191 4.3 7.0 0.00 1.20 0.00 93 1013.4
20260903134556 81 190 2.6 5.2 0.00 1.20 0.00 93 1013.3
20260903134108 81 192 0.9 6.1 0.00 1.20 0.00 93 1013.4
20260903133609 81 155 3.5 7.8 0.00 1.20 0.00 93 1013.2
20260903133040 81 186 4.3 7.8 0.00 1.20 0.00 93 1013.2
20260903132548 81 188 5.2 7.8 0.00 1.20 0.00 93 1013.1
20260903131610 81 188 4.3 6.1 0.00 1.20 0.00 94 1013.1
20260903131055 80 191 4.3 7.8 0.00 1.20 0.00 94 1013.0
20260903130604 80 198 5.2 7.8 0.00 1.20 0.00 94 1012.9
20260903130151 80 186 5.2 7.0 0.00 1.20 0.00 94 1012.9
20260903125538 80 196 5.2 8.7 0.00 1.20 0.00 94 1012.8
20260903125150 80 201 5.2 7.8 0.00 1.20 0.00 94 1012.7
20260903124553 80 197 6.1 7.8 0.00 1.20 0.00 94 1012.6
20260903124050 80 200 5.2 7.0 0.00 1.20 0.00 94 1012.7
20260903123049 80 178 3.5 5.2 0.00 1.20 0.00 94 1012.7
20260903122601 80 186 3.5 6.1 0.00 1.20 0.00 94 1012.7
20260903121542 80 182 3.5 5.2 0.00 1.20 0.00 94 1012.6
20260903121046 80 165 2.6 6.1 0.00 1.20 0.00 94 1012.5
20260903120116 80 171 2.6 6.1 0.00 1.20 0.00 94 1012.6
20260903115621 80 166 4.3 6.1 0.00 1.20 0.00 94 1012.5
20260903115132 80 188 4.3 6.1 0.00 1.20 0.00 94 1012.5
20260903114553 80 170 3.5 5.2 0.00 1.20 0.00 94 1012.4
20260903114045 80 161 4.3 5.2 0.00 1.20 0.00 94 1012.4
20260903113106 80 178 4.3 7.0 0.00 1.20 0.00 94 1012.4
20260903112612 80 178 4.3 7.0 0.00 1.20 0.00 94 1012.3
20260903112122 80 166 5.2 7.0 0.00 1.20 0.00 94 1012.4
20260903111554 80 171 4.3 5.2 0.00 1.20 0.00 94 1012.3
20260903111055 80 169 3.5 5.2 0.00 1.20 0.00 94 1012.3
20260903110124 80 165 5.2 7.0 0.00 1.20 0.00 94 1012.3
20260903105608 80 183 3.5 4.3 0.00 1.20 0.00 94 1012.3
20260903104628 80 184 2.6 5.2 0.00 1.20 0.00 94 1012.2
20260903104039 80 186 3.5 7.0 0.00 1.20 0.00 94 1012.2
20260903103106 80 180 3.5 7.0 0.00 1.20 0.00 94 1012.2
20260903102618 80 190 3.5 6.1 0.00 1.20 0.00 94 1012.2
20260903102122 80 187 4.3 7.8 0.00 1.20 0.00 94 1012.2
20260903101550 80 181 3.5 6.1 0.00 1.20 0.00 94 1012.2
20260903101102 80 185 4.3 6.1 0.00 1.20 0.00 94 1012.3
20260903100103 80 182 3.5 6.1 0.00 1.20 0.00 94 1012.3
20260903095608 80 187 5.2 6.1 0.00 1.20 0.00 94 1012.2
20260903095120 80 178 2.6 4.3 0.00 1.20 0.00 94 1012.3
20260903094042 80 179 1.7 3.5 0.00 1.20 0.00 94 1012.4
20260903093105 80 178 1.7 4.3 0.00 1.20 0.00 94 1012.4
20260903092617 80 179 1.7 4.3 0.00 1.20 0.00 93 1012.4
20260903091618 80 168 3.5 7.8 0.00 1.20 0.00 93 1012.4
20260903091130 80 168 5.2 7.8 0.00 1.20 0.00 93 1012.4
20260903090635 80 157 4.3 6.1 0.00 1.20 0.00 93 1012.4
20260903090105 80 171 3.5 5.2 0.00 1.20 0.00 93 1012.4
20260903085614 80 180 3.5 5.2 0.00 1.20 0.00 93 1012.3
20260903084553 80 182 3.5 6.1 0.00 1.20 0.00 93 1012.3
20260903084058 80 182 4.3 7.0 0.00 1.20 0.00 93 1012.2
20260903083057 80 179 3.5 7.0 0.00 1.20 0.00 93 1012.2
20260903082609 80 182 4.3 7.8 0.00 1.20 0.00 93 1012.2
20260903082113 80 182 4.3 7.8 0.00 1.20 0.00 93 1012.2
20260903081544 80 157 5.2 7.8 0.00 1.20 0.00 93 1012.2
20260903081055 80 169 5.2 7.8 0.00 1.20 0.00 93 1012.2
20260903080118 80 159 5.2 7.8 0.00 1.20 0.00 92 1012.1
20260903075608 80 188 5.2 8.7 0.00 1.20 0.00 92 1012.1
20260903075107 80 167 7.0 9.6 0.00 1.20 0.00 92 1012.0
20260903074538 80 180 7.0 9.6 0.00 1.20 0.00 92 1012.0
20260903074044 80 173 7.0 10.4 0.00 1.20 0.00 92 1012.0
20260903073113 80 170 7.0 8.7 0.00 1.20 0.00 92 1011.9
20260903072616 80 194 6.1 8.7 0.00 1.20 0.00 92 1011.9
20260903072132 80 180 7.0 10.4 0.00 1.20 0.00 92 1011.8
20260903071552 80 194 6.1 10.4 0.00 1.20 0.00 91 1011.9
20260903071103 80 179 7.0 10.4 0.00 1.20 0.00 91 1011.9
20260903070105 81 191 7.8 12.2 0.00 1.20 0.00 91 1011.9
20260903065554 81 169 9.6 13.9 0.00 1.20 0.00 91 1012.0
20260903065044 81 163 9.6 14.8 0.00 1.20 0.00 91 1012.0
20260903064537 81 168 10.4 14.8 0.00 1.20 0.00 91 1012.1
20260903064048 81 162 7.8 12.2 0.00 1.20 0.00 91 1012.1
20260903063558 81 170 7.8 11.3 0.00 1.20 0.00 91 1012.1
20260903063050 80 178 7.8 12.2 0.00 1.20 0.00 92 1012.2
20260903062540 80 159 8.7 13.0 0.00 1.20 0.00 92 1012.2
20260903062050 80 180 6.1 10.4 0.00 1.20 0.00 93 1012.2
20260903061543 80 165 6.1 12.2 0.00 1.20 0.00 93 1012.2
20260903061038 80 155 7.8 12.2 0.00 1.20 0.00 93 1012.2
20260903060550 79 149 7.0 12.2 0.00 1.20 0.00 93 1012.2
20260903060043 79 157 7.8 10.4 0.00 1.20 0.00 93 1012.2
20260903055554 79 160 7.0 11.3 0.00 1.20 0.00 93 1012.2
20260903055039 78 161 8.7 11.3 0.00 1.20 0.00 93 1012.2
20260903054535 78 148 6.1 11.3 0.00 1.20 0.00 93 1012.2
20260903054046 78 149 7.8 11.3 0.00 1.20 0.00 93 1012.2
20260903053536 78 141 7.0 9.6 0.00 1.20 0.00 92 1012.3
20260903053055 78 154 6.1 10.4 0.00 1.20 0.00 92 1012.3
20260903052543 78 146 7.0 10.4 0.00 1.20 0.00 92 1012.3
20260903052052 78 126 7.0 10.4 0.00 1.20 0.00 92 1012.3
20260903051551 78 150 7.0 10.4 0.00 1.20 0.00 92 1012.3
20260903051102 78 159 7.8 10.4 0.00 1.20 0.00 92 1012.2
20260903050544 78 154 7.8 13.9 0.00 1.20 0.00 91 1012.2
20260903050104 78 153 9.6 13.9 0.00 1.20 0.00 91 1012.2
20260903045610 78 153 10.4 13.9 0.00 1.20 1.20 91 1012.3
20260903045109 78 133 9.6 13.9 0.00 1.20 1.20 91 1012.4
20260903044541 78 173 10.4 13.0 0.00 1.20 1.20 91 1012.4
20260903044053 78 137 8.7 13.0 0.00 1.20 1.20 91 1012.4
20260903043115 78 147 7.8 12.2 0.01 1.20 1.20 91 1012.7
20260903042558 78 164 8.7 13.9 0.01 1.20 1.20 91 1012.8
20260903041632 78 144 7.8 10.4 0.01 1.20 1.20 90 1012.8
20260903041137 78 153 7.8 9.6 0.01 1.20 1.20 90 1012.8
20260903040629 78 178 7.0 8.7 0.01 1.20 1.20 89 1012.9
20260903040054 78 155 5.2 13.0 0.02 1.20 1.20 89 1013.0
20260903035559 78 176 7.0 13.0 0.02 1.20 1.20 89 1013.0
20260903035151 79 169 6.1 10.4 0.02 1.20 1.20 88 1013.0
20260903034558 79 180 7.0 11.3 0.02 1.20 1.20 90 1013.2
20260903034103 79 190 7.0 9.6 0.02 1.20 1.20 91 1013.4
20260903033127 79 167 7.0 9.6 0.02 1.20 1.20 93 1013.2
20260903032541 79 188 7.0 9.6 0.01 1.19 1.19 93 1013.2
20260903032132 79 185 5.2 9.6 0.01 1.19 1.19 92 1013.2
20260903031551 79 171 6.1 9.6 0.01 1.19 1.19 92 1013.1
20260903031102 79 157 6.1 9.6 0.01 1.19 1.19 92 1013.3
20260903030042 79 139 4.3 8.7 0.01 1.19 1.19 91 1013.4
20260903025552 79 137 5.2 8.7 0.01 1.19 1.19 91 1013.3
20260903024614 80 142 4.3 7.0 0.02 1.18 1.18 90 1013.0
20260903024106 80 134 3.5 7.8 0.15 1.18 1.18 89 1012.8
20260903023125 80 90 2.6 4.3 0.65 1.18 1.18 87 1013.0
20260903022627 81 223 0.0 2.6 0.87 1.18 1.18 86 1012.8
20260903022122 81 224 0.0 0.9 1.14 1.18 1.18 86 1012.7
20260903021549 81 223 0.0 0.9 1.18 1.18 1.18 85 1012.7
20260903021054 81 223 0.0 3.5 1.18 1.18 1.18 85 1012.5
20260903020123 80 223 1.7 7.8 1.18 1.18 1.18 88 1012.4
20260903015605 80 209 3.5 10.4 1.18 1.18 1.18 88 1012.1
20260903014627 80 113 4.3 10.4 1.18 1.18 1.18 87 1011.8
20260903014043 80 91 7.0 10.4 1.09 1.09 1.09 86 1012.0
20260903013100 83 135 1.7 8.7 0.76 0.76 0.76 79 1011.9
20260903012547 85 318 0.0 10.4 0.53 0.53 0.53 75 1011.7
20260903011608 88 337 0.0 7.8 0.04 0.04 0.04 68 1011.1
20260903011120 88 77 2.6 9.6 0.00 0.00 0.00 67 1010.7
20260903010122 89 71 8.7 14.8 0.00 0.00 0.00 65 1010.4
20260903005634 90 66 9.6 14.8 0.00 0.00 0.00 62 1010.1